Location: Unspecified
(46.0725°N, 13.7344°E)
Time: 00:41:40
(UTC+02:00)

Resurs 1-4 Rocket - Visible Passes

Search period start: 19 June 2018 00:00
Search period end: 29 June 2018 00:00
Orbit: 800 x 813 km, 98.5° (Epoch: 17 June)

Date Brightness Start Highest point End Pass type
(mag) Time Alt. Az. Time Alt. Az. Time Alt. Az.
19 Jun 3.9 02:06:24 10° NE 02:10:37 23° E 02:14:05 13° SE visible
19 Jun 2.5 03:45:34 10° N 03:50:44 52° WNW 03:55:09 14° SW visible
20 Jun 4.4 01:42:56 10° NE 01:45:44 14° E 01:48:30 10° ESE visible
20 Jun 2.1 03:20:52 10° NNE 03:26:14 83° WNW 03:30:15 18° SSW visible
21 Jun 2.4 02:56:19 10° NNE 03:01:38 62° ESE 03:05:22 19° S visible
21 Jun 3.7 04:37:03 10° NNW 04:41:00 22° WNW 04:44:56 10° WSW visible
22 Jun 3.1 02:31:58 10° NNE 02:36:56 38° E 02:40:29 17° SSE visible
22 Jun 3.1 04:11:58 10° N 04:16:40 33° WNW 04:21:21 10° SW visible
23 Jun 3.8 02:07:53 10° NE 02:12:09 24° E 02:15:35 13° SE visible
23 Jun 2.5 03:47:06 10° N 03:52:15 51° WNW 03:56:40 14° SW visible
24 Jun 4.4 01:44:21 10° NE 01:47:17 15° E 01:50:11 10° ESE visible
24 Jun 2.1 03:22:24 10° NNE 03:27:45 81° WNW 03:31:47 18° SSW visible
25 Jun 2.4 02:57:50 10° NNE 03:03:09 64° ESE 03:06:53 20° S visible
26 Jun 3.1 02:33:28 10° NNE 02:38:28 39° E 02:41:58 18° SSE visible
26 Jun 3.2 04:13:32 10° N 04:18:11 32° WNW 04:22:49 10° SW visible
27 Jun 3.8 02:09:22 10° NE 02:13:42 25° E 02:17:04 14° SE visible
27 Jun 2.6 03:48:39 10° N 03:53:46 49° WNW 03:58:09 14° SW visible
28 Jun 4.3 01:45:46 10° NE 01:48:49 15° E 01:51:52 10° SE visible
28 Jun 2.1 03:23:56 10° NNE 03:29:17 78° WNW 03:33:15 18° SSW visible
